Location: Lafig�re
(44.4503°N, 4.0357°E)
Time: 14:23:34
(UTC+00:00)

deb Explorer IX - Pass Details

Date: 28 January 2021
Orbit: 537 x 1102 km, 38.8° (Epoch: 01 March)

Event Time Altitude Azimuth Distance (km) Brightness Sun altitude
Rises 18:17:08 0° 264° (W) 3,758 ? -16.0°
Reaches altitude 10° 18:20:03 10° 259° (W) 2,735 ? -16.5°
Maximum altitude 18:26:21 49° 187° (S) 1,122 ? -17.7°
Enters shadow 18:29:46 23° 123° (ESE) 1,706 ? -18.3°
Drops below altitude 10° 18:31:45 10° 113° (ESE) 2,351 - -18.6°
Sets 18:34:06 0° 108° (ESE) 3,190 - -19.0°
